Showing default

OPS 0340, 2125

Orbit data source: Space-Track

OPS 0340, 2125 is a payload satellite owned by USAF SSD (US) in SSO that was launched on Thu, 31 Mar 1966 UTC via a THOR BURNER 1 launch vehicle from the Air Force Western Test Range (AFWTR). Payload-class satellites include a variety of spacecraft equipped with specific instruments for various scientific and technological missions. These include communications satellites like Starlink; space stations such as the ISS; scientific satellites like the Hubble; Earth observation satellites from companies like Planet Labs, Umbra, and HawkEye 360; GPS; miniature CubeSats for education and research; and military/defense satellites.

Loading next visibility...
Identifier
2125, 1966-026A
Orbit
SSO
Country
Flag of USUS
Related business
Manufacturer
RCA/East Windsor
Mission
Spacecraft
Bus & Motor
P35?, Unknown motor
Mass
72 kg wet, 72 kg dry
Launch date (UTC)
1966-03-31 (60 years ago)
Launch vehicle
THOR BURNER 1
Launch site
Air Force Western Test Range (AFWTR)
Object type
Payload
Rocket body
Debris
Shape & HBR
Unknown
Radar Cross Section
Medium (>0.1 m² and <1 m²)

Expand to show TLE details & history
Last TLE update: 8 hours ago

TLE from 8 hours ago
0 OPS 0340
1  2125U 66026A   26036.96779417  .00001006  00000-0  18807-3 0  9991
2  2125  98.0176 209.2175 0145712 296.5877  62.0455 14.60549354140393
Epoch: 2026-02-05T23:13Z
TLE epoch observation values (Epoch: 2026-02-05T23:13:37.416Z)
Latitude
0.00004°
Longitude
84.69917°
Altitude
647.278 km
Speed
7.559 km/s
True Right ascension
13h 56m 52s
True Declination
0° 00' 00"
Sunlit
Object was in daylight at epoch
Visualization orbit readout
Latitude
Unknown
Longitude
Unknown
Altitude
Unknown
Speed
Unknown
Apparent Right ascension
Unknown
Apparent Declination
Unknown
Sunlit
N/A
Visualization observer readout
Local Sidereal Time
09:25:28
Azimuth
Unknown
Elevation
Unknown
Doppler factor
Unknown
Orbital elements
Apogee altitude
791.441 km
Perigee altitude
585.503 km
Semi-major axis
7,066.609 km
Eccentricity
0.01457
Inclination
98.0176°
RAAN
209.2175°
Arg. of periapsis
296.5877°
True anomaly
63.53294°
Mean anomaly
62.0455°
Eccentric anomaly
62.78797°
Mean motion
3.65365 °/min
Orbital period
98.53 mins
BSTAR
0.00018807
Loading maneuver chart data...
Computing Atmospheric mass density...
Loading historical data...
Loading historical data...
Loading historical data...
Loading historical data...
Loading historical data...
Loading historical data...
Loading historical data...

Documentation

Showing up to 5 results
|